Overview Statistics Trail Chart Weather Telemetry Raw packets
 

This is the latest recevied weather packets stored in our database for station/object W8LMG. If no packets are shown the sender has not sent any weather packets the latest 10 day(s).

<< 1 2 3 4 >>
Time Temp. Humidity Pressure Rain* Wind** Luminosity Snow
1788624558 21.11° C 93% 1016.5 hPa 0 mm - 124 W/m² -
1788624253 21.11° C 95% 1016.4 hPa 0 mm - 89 W/m² -
1788623953 20.56° C 97% 1016.4 hPa 0 mm - 79 W/m² -
1788623652 20.56° C 99% 1016.4 hPa 0 mm - 66 W/m² -
1788623351 20° C 99% 1016.7 hPa 0 mm - 79 W/m² -
1788623047 20° C 99% 1016.5 hPa 0 mm - 92 W/m² -
1788622742 20° C 99% 1016.2 hPa 0 mm - 98 W/m² -
1788622440 19.44° C 99% 1016.2 hPa 0 mm - 89 W/m² -
1788622138 19.44° C 99% 1017 hPa 0 mm - 90 W/m² -
1788621837 18.89° C 99% 1016.7 hPa 0 mm - 50 W/m² -
1788621533 19.44° C 99% 1017 hPa 0 mm - 56 W/m² -
1788621229 19.44° C 99% 1017.2 hPa 0 mm - 54 W/m² -
1788620929 18.89° C 99% 1016.9 hPa 0 mm - 63 W/m² -
1788620623 18.89° C 99% 1017.3 hPa 0 mm - 65 W/m² -
1788620321 18.89° C 99% 1017.7 hPa 0 mm - 50 W/m² -
1788620020 18.89° C 99% 1017.6 hPa 0 mm - 39 W/m² -
1788619719 18.89° C 99% 1017.6 hPa 0 mm - 38 W/m² -
1788619415 18.89° C 99% 1017.8 hPa 0 mm - 22 W/m² -
1788619114 18.89° C 99% 1018 hPa 0 mm - 19 W/m² -
1788618808 18.89° C 99% 1017.9 hPa 1.27 mm - 22 W/m² -
1788618507 18.89° C 99% 1017.7 hPa 1.27 mm - 21 W/m² -
1788618201 18.89° C 99% 1017.8 hPa 0 mm - 15 W/m² -
1788617898 18.89° C 99% 1017.9 hPa 1.78 mm - 13 W/m² -
1788617593 18.89° C 99% 1017.7 hPa 4.83 mm - 8 W/m² -
1788617297 18.89° C 99% 1018 hPa 4.32 mm - 8 W/m² -

* Rain latest hour (hover to see other rain measurements)
** Current wind speed in m/s (hover to see current wind gust speed)